Theta_e
304 303 299 301 301 301 300 300 298 299 301 303 301 302 304 307 309 310 313 314 316 317 320 325 326 326 326 328 327 326 326 327 325 322 322 321 319 321 321 322 325 325 325 326
303 299 301 302 302 302 301 299 298 299 302 303 301 301 304 306 305 311 313 314 315 317 321 321 321 320 319 320 321 322 322 324 324 322 323 323 322 321 322 323 325 325 324 325
300 300 302 302 301 300 299 298 298 298 299 302 300 299 301 305 308 310 312 314 316 317 317 316 316 317 318 319 320 319 321 321 323 323 322 324 323 322 319 320 320 322 323 323
301 302 302 301 299 300 297 300 299 298 297 294 298 292 299 302 304 307 309 311 311 311 312 313 312 313 315 317 319 320 320 320 320 321 320 322 320 317 319 319 320 321 322 322
300 301 300 299 299 300 299 301 299 298 297 296 295 293 297 302 301 304 307 308 308 310 310 310 310 312 313 315 316 318 320 320 320 320 321 319 318 316 317 317 319 320 321 321
303 306 303 302 301 302 301 299 297 297 296 291 293 294 294 298 302 305 307 307 308 309 309 309 311 312 313 314 315 316 318 318 319 318 318 317 315 314 312 312 311 311 312 315
302 302 304 304 301 302 301 300 294 291 291 289 294 293 296 301 303 307 307 308 308 308 308 308 310 310 312 314 314 314 315 315 317 316 316 314 314 314 312 311 310 310 310 311
297 294 301 304 301 299 297 298 293 285 287 290 292 291 296 301 304 306 307 308 308 307 307 308 309 310 311 312 313 312 311 311 313 314 314 313 313 310 310 311 310 309 310 313
297 296 302 303 302 301 297 296 297 292 290 289 293 294 298 302 303 304 305 306 307 307 307 308 310 310 310 311 311 311 310 310 310 311 312 312 311 312 310 311 312 311 313 313
300 295 299 302 302 301 300 299 293 295 286 284 289 290 294 297 300 303 305 306 307 307 308 309 309 309 310 311 311 310 310 308 309 310 309 309 310 311 309 310 310 312 312 314
301 300 298 298 296 295 297 295 294 294 292 287 285 290 298 299 300 301 303 306 307 307 307 308 308 309 310 310 309 308 307 307 307 307 308 308 309 308 310 310 309 310 312 309
300 300 295 293 297 298 298 295 295 293 288 291 290 290 301 302 303 304 304 305 305 307 308 308 308 309 309 308 307 306 307 306 306 307 307 308 309 308 308 308 308 307 307 307
301 297 293 291 295 298 296 297 296 294 293 289 287 290 301 302 302 302 302 304 306 306 307 307 308 308 308 307 306 305 306 305 305 306 307 306 308 306 306 306 306 306 305 304
304 296 296 292 292 295 292 295 296 294 291 289 289 291 297 299 300 302 304 305 306 306 306 307 307 307 307 306 305 305 305 305 305 306 304 305 306 305 304 304 303 303 303 302
302 296 294 294 293 294 294 294 295 293 293 289 291 293 297 300 301 303 305 305 304 304 305 306 306 307 306 303 304 304 304 305 305 304 305 306 304 304 303 302 302 302 302 302
300 296 296 293 295 295 293 295 294 294 294 293 294 295 301 303 304 303 303 303 303 303 304 305 306 306 301 303 302 302 303 305 304 305 305 303 302 301 301 301 301 301 301 301
299 297 294 288 292 291 290 292 293 295 297 297 293 298 301 300 300 302 303 303 303 303 305 305 305 304 303 302 302 302 301 305 303 302 302 301 301 300 301 301 301 301 301 302
297 295 294 291 291 285 292 298 298 296 298 300 299 300 301 301 303 304 305 303 303 304 304 304 304 302 302 302 302 300 301 302 301 300 299 300 300 300 302 304 305 304 305 304
299 297 290 289 288 292 293 297 296 295 295 300 299 301 301 303 303 302 304 304 303 302 302 302 302 302 302 301 299 300 300 300 299 298 299 299 300 304 304 304 305 304 304 304
297 298 297 290 286 285 293 299 301 300 291 300 301 300 300 301 295 298 304 302 301 300 299 299 300 300 301 299 299 300 299 298 298 300 300 303 304 303 303 304 304 306 308 305
293 294 291 290 290 292 299 301 301 290 292 301 301 302 301 299 301 303 302 299 299 298 296 297 297 298 298 299 300 299 298 298 301 301 302 302 304 305 304 304 305 303 305 303
293 292 292 291 288 285 301 300 294 300 303 302 303 302 301 302 301 300 298 297 296 294 296 296 295 295 297 300 300 297 298 300 301 302 303 302 300 304 305 305 305 304 303 305
293 297 296 296 296 301 303 301 305 305 303 303 303 302 301 299 298 297 296 294 295 295 296 296 294 295 299 300 300 298 300 303 301 302 303 303 304 303 302 302 305 304 305 303
296 297 296 294 296 298 301 304 303 304 303 303 301 300 299 297 296 296 295 294 295 296 295 296 296 297 297 299 301 303 303 301 301 301 300 302 302 302 303 303 302 302 302 303
295 296 293 294 297 299 301 301 302 302 302 300 300 299 297 296 296 296 294 295 296 295 296 297 297 297 298 301 301 301 300 300 300 301 302 301 300 301 302 301 299 302 300 298
296 295 295 293 299 298 299 302 302 301 299 299 298 297 297 297 295 295 295 296 296 296 297 298 297 298 301 301 301 303 304 303 302 300 301 300 301 301 301 302 303 293 293 293
Wind_Speed
3 2 4 4 3 5 6 6 5 3 3 5 7 8 13 10 8 11 13 13 12 10 6 7 6 6 5 7 7 9 9 10 8 8 8 8 9 9 9 9 12 12 12 12
2 5 0 6 8 9 6 6 4 5 5 3 3 8 8 9 5 8 13 13 11 11 10 7 6 6 6 6 7 8 8 8 7 6 6 4 7 6 8 8 11 12 14 14
4 3 5 7 8 7 3 3 2 2 4 5 5 3 4 6 7 8 8 9 10 11 10 6 5 5 6 6 7 6 7 8 7 8 7 6 7 7 8 9 10 12 14 15
5 2 7 4 3 1 3 3 3 3 3 4 2 2 3 5 6 7 9 9 9 7 6 5 4 5 5 6 6 6 7 9 7 8 7 8 9 10 9 10 10 12 14 15
3 2 2 2 1 2 3 2 3 1 3 2 4 5 6 9 10 12 11 9 5 4 3 3 3 3 4 5 6 6 7 8 6 7 7 7 10 10 10 11 14 14 14 16
3 1 2 2 3 3 8 2 3 2 2 4 4 3 7 11 16 14 12 9 6 4 3 1 1 2 3 5 6 6 6 7 7 8 9 10 13 14 12 12 13 13 13 13
3 3 3 2 3 3 2 2 4 3 3 3 3 4 4 13 7 15 15 11 7 5 4 3 2 4 5 7 7 6 7 11 10 11 11 12 14 14 15 14 13 16 14 13
3 4 5 6 3 2 3 2 3 5 5 5 3 5 2 1 2 3 5 9 8 6 5 3 3 5 6 6 8 11 14 16 15 16 15 14 15 11 12 14 14 14 13 12
4 3 1 6 2 3 4 2 2 2 1 3 2 2 4 1 4 4 6 7 7 5 3 3 4 4 6 8 12 15 17 18 18 18 14 16 15 14 14 16 15 12 14 12
3 3 1 2 1 10 2 5 3 1 4 4 4 4 4 0 3 3 5 9 5 2 3 4 4 6 8 11 13 15 16 18 18 18 16 16 16 14 12 14 14 15 15 15
2 1 3 2 6 3 1 2 5 2 2 4 4 1 2 4 6 8 10 4 2 4 6 6 6 6 9 11 13 16 17 18 18 17 17 17 15 13 15 12 12 11 12 8
2 2 2 4 4 2 2 3 2 2 3 0 2 5 3 2 4 4 3 2 4 6 8 8 8 8 10 13 15 17 17 17 17 17 16 16 13 13 11 11 9 8 8 6
3 1 2 3 3 3 1 3 4 4 1 7 6 2 2 1 2 1 3 5 7 9 11 11 10 10 10 13 15 16 16 17 17 16 15 14 13 8 10 9 9 8 7 7
3 3 4 6 2 1 3 6 3 4 3 3 9 14 9 6 4 4 7 9 10 10 13 13 12 11 11 12 14 16 16 16 16 15 14 13 10 6 7 7 8 7 7 6
1 3 2 1 1 3 5 5 5 9 6 6 3 10 13 4 5 7 11 12 12 14 15 16 13 12 11 12 14 15 15 14 14 14 13 10 6 7 7 7 7 6 6 6
3 3 1 2 1 4 8 6 7 11 8 12 10 10 2 4 7 11 14 15 15 16 17 16 14 12 11 14 15 15 14 14 13 13 8 7 7 7 6 6 6 5 5 5
2 4 3 2 1 6 8 1 3 2 4 3 5 7 3 7 12 14 16 16 16 16 17 17 14 11 11 14 14 14 13 14 12 8 7 7 5 5 5 6 5 5 6 5
5 4 0 1 3 4 4 3 4 4 5 5 7 7 6 12 11 14 13 13 13 16 17 16 13 12 12 13 13 10 10 8 6 6 6 6 5 6 7 5 7 7 7 6
1 4 3 1 2 4 2 3 2 2 4 4 6 6 13 14 13 15 7 12 16 17 16 15 14 11 12 13 9 8 8 6 5 6 7 6 5 8 9 9 8 6 6 6
5 3 2 3 3 3 4 4 1 3 6 4 3 11 15 14 13 13 15 16 18 18 17 17 15 11 11 10 6 6 5 5 6 6 6 7 9 7 8 8 6 4 6 8
4 2 5 3 2 5 2 1 2 3 5 6 6 10 10 9 10 16 16 18 17 16 15 15 13 10 10 6 6 4 4 6 5 6 7 6 7 6 5 3 6 7 7 3
3 5 3 3 2 5 2 2 4 5 4 5 8 6 8 10 13 16 17 17 15 14 16 12 10 10 9 5 3 5 7 4 5 6 6 6 4 5 5 6 5 6 4 6
2 2 1 5 1 1 2 2 6 5 7 5 6 5 7 12 14 15 14 13 12 12 10 10 8 9 8 9 6 6 5 7 6 7 8 6 5 6 7 6 6 7 6 5
2 2 2 3 3 4 4 6 5 3 2 1 3 6 9 12 13 14 11 11 10 9 9 8 8 7 9 7 7 7 6 6 7 8 7 6 7 6 7 6 5 5 6 6
2 2 1 4 7 6 3 3 4 1 1 2 5 7 9 11 12 12 11 10 8 7 7 6 6 7 7 8 8 8 7 6 7 7 7 7 5 8 8 10 9 6 9 8
3 2 2 2 3 4 5 6 3 2 4 6 8 10 10 9 11 11 10 8 6 6 5 6 7 7 9 8 8 9 9 8 7 7 6 6 5 6 5 5 10 13 10 13
Wind_Direction
34 177 172 165 145 129 130 136 119 94 27 79 54 35 15 22 77 133 141 141 132 122 122 122 95 59 54 40 29 20 -0 357 357 356 345 340 341 337 339 340 339 345 348 349
131 89 93 109 122 122 116 123 95 113 100 92 114 59 35 37 68 139 143 140 134 132 137 122 88 69 50 38 23 9 357 350 350 338 325 314 315 310 314 314 324 333 339 335
91 63 147 132 123 120 83 120 157 87 125 87 154 106 45 54 93 121 125 128 132 139 133 112 83 44 23 9 351 339 340 332 322 326 307 298 292 282 302 322 324 328 327 327
61 54 139 121 106 218 159 179 163 160 217 294 231 291 160 150 145 160 155 157 142 126 109 82 41 16 2 349 343 338 333 327 320 326 311 305 302 303 311 304 307 308 310 313
75 129 137 124 98 208 94 97 43 47 180 236 175 253 121 173 195 190 187 177 158 133 110 80 32 352 336 338 328 323 318 318 317 324 326 312 308 307 305 303 306 304 300 304
37 346 6 78 74 66 141 118 75 97 161 236 120 299 180 189 211 195 193 193 179 163 141 136 278 321 325 306 321 325 312 307 300 306 304 304 305 304 303 306 306 304 303 298
10 21 11 21 137 92 102 340 300 241 227 335 120 266 323 208 209 207 196 187 171 168 192 223 261 313 325 323 333 327 315 308 304 297 295 305 306 301 299 306 308 307 301 299
196 187 4 357 31 55 55 307 289 292 283 315 143 244 86 9 0 128 158 161 169 187 198 249 307 305 308 336 335 334 332 323 314 305 297 307 308 297 299 304 307 299 300 295
172 192 309 33 41 324 133 197 44 129 95 256 289 213 218 95 134 137 146 177 192 197 211 268 306 303 342 341 343 339 332 324 317 313 307 309 309 298 307 307 306 301 298 294
148 170 23 82 200 57 349 112 209 172 269 265 200 256 264 27 247 209 236 228 215 221 287 298 324 350 343 342 337 332 328 323 319 315 314 314 313 302 306 309 305 305 305 304
124 269 133 235 22 333 203 155 64 38 300 288 302 227 58 324 326 301 310 269 283 309 313 318 314 320 332 329 330 333 328 324 322 320 319 317 314 315 312 306 298 295 303 336
42 80 81 37 9 241 83 100 103 211 175 243 308 274 24 314 322 334 22 355 320 300 295 290 286 304 318 329 335 331 327 324 325 320 320 317 319 323 324 331 344 346 338 332
162 46 139 159 180 165 125 115 92 84 33 241 275 315 117 230 258 8 325 313 300 298 287 285 282 302 317 329 331 329 325 324 321 320 322 320 317 322 332 332 347 347 2 16
85 127 237 267 14 69 206 180 179 213 201 281 259 299 311 304 258 284 289 289 291 296 300 298 288 300 313 325 326 326 324 321 321 323 317 313 320 352 347 353 0 3 16 21
15 221 217 281 259 244 265 240 222 221 238 239 299 301 323 320 282 290 293 297 300 306 315 311 294 301 312 328 324 327 323 322 325 320 313 346 9 11 8 9 8 10 19 14
17 142 188 265 315 262 267 256 235 247 252 245 274 291 266 279 280 290 301 315 309 317 315 315 297 307 325 328 329 326 326 323 323 316 5 6 21 23 16 13 4 360 5 359
85 140 161 257 338 296 260 125 219 244 204 257 286 338 299 307 320 317 320 315 313 317 320 319 320 319 328 330 329 325 323 327 322 16 16 28 30 28 5 359 351 357 346 331
138 123 198 277 274 241 79 338 266 280 274 247 276 279 295 318 320 307 314 323 328 326 325 325 324 321 327 329 330 328 322 328 356 27 31 36 15 1 355 354 7 359 352 357
278 138 115 247 236 320 144 182 188 321 309 325 283 291 323 327 317 310 30 344 328 329 326 322 315 314 327 331 333 321 325 1 22 38 45 18 353 347 2 7 10 8 3 24
98 87 158 178 239 282 63 149 85 184 298 37 322 315 318 327 317 327 350 337 334 331 325 320 313 316 326 338 316 326 7 23 46 40 10 344 350 354 3 -0 356 10 21 32
159 155 224 172 242 287 39 169 185 283 6 330 314 318 316 310 315 322 334 336 337 337 330 329 331 322 337 315 319 16 48 55 27 353 345 357 4 21 31 33 17 358 43 34
206 177 163 147 205 272 59 148 256 359 312 302 324 328 313 318 323 333 335 336 336 331 341 338 330 321 311 310 20 74 73 34 344 356 26 35 2 1 19 43 51 49 46 36
229 288 185 213 249 128 250 299 297 287 286 322 314 330 328 323 331 333 331 333 325 324 329 333 330 322 14 61 71 75 42 13 8 41 48 39 31 23 29 33 42 57 75 29
159 140 248 248 167 239 262 272 311 312 312 329 352 333 326 328 330 331 332 323 321 325 330 328 338 43 56 56 71 50 31 24 44 49 35 17 23 11 30 41 35 33 33 30
26 187 266 279 285 276 264 20 340 112 81 357 341 336 336 329 327 329 316 316 317 320 325 344 57 71 70 67 54 40 33 30 50 46 31 26 24 26 47 49 21 36 44 22
181 166 202 277 4 297 342 354 22 38 9 352 338 341 342 323 321 320 308 301 308 318 337 76 80 84 76 61 46 32 23 30 43 33 11 10 11 7 38 59 75 56 73 67